Regional Weather Roundup
Issued by NWS Sioux Falls, SD

Home | Current Version | Previous Version | Text Only | Print | Product List | Glossary On
Versions: 1 2 3 4 5 6 7 8 9 10 11 12 13 14 15 16 17 18 19 20 21 22 23 24 25 26 27 28 29 30 31 32 33 34 35 36 37 38 39 40 41 42 43 44 45 46 47 48 49 50
446
ASUS43 KFSD 290202
RWRFSD

WEATHER ROUNDUP FOR SE SOUTH DAKOTA/SW MINNESOTA/NW IOWA
NATIONAL WEATHER SERVICE SIOUX FALLS SD
900 PM CDT THU JUL 28 2016

NOTE: "FAIR" INDICATES FEW OR NO CLOUDS BELOW 12,000 FEET WITH NO
SIGNIFICANT WEATHER AND OR OBSTRUCTIONS TO VISIBILITY.


SDZ038>040-050-052>070-290300-
SOUTHEAST SOUTH DAKOTA

CITY           SKY/WX    TMP DP  RH WIND       PRES   REMARKS
BROOKINGS      CLEAR     68  58  70 NE7       30.07R
CHAMBERLAIN    CLOUDY    76  60  57 NE3       30.06R
HURON          MOCLDY    72  58  61 E7        30.05R
MADISON        FAIR      64  63  94 NE6       30.08R
MITCHELL       MOCLDY    72  61  68 E6        30.05R
SIOUX FALLS    MOCLDY    67  57  70 NE6       30.05R
WINNER         LGT RAIN  67  63  87 W10       30.09R
YANKTON        PTCLDY    73  61  64 NE6       30.02R
$$

MNZ071-072-080-081-089-090-097-098-290300-
SOUTHWEST MINNESOTA

CITY           SKY/WX    TMP DP  RH WIND       PRES   REMARKS
FAIRMONT       CLOUDY    68  63  83 E6        30.02R
JACKSON        PTCLDY    68  61  77 NE5       30.05R
LUVERNE        PTCLDY    68  57  68 NE3       30.05S
MARSHALL       CLEAR     67  59  75 NE5       30.06R
MONTEVIDEO     PTCLDY    66  57  72 E3        30.08R
REDWOOD FALLS  CLEAR     70  58  65 CALM      30.04R
TRACY          PTCLDY    65  61  85 N7        30.06R
WINDOM         CLOUDY    66  61  82 CALM      30.04S
WORTHINGTON    MOCLDY    67  60  78 CALM      30.06R
$$

IAZ001>003-012>014-020>022-031-032-NEZ013-014-SDZ071-290300-
NORTHWEST IOWA

CITY           SKY/WX    TMP DP  RH WIND       PRES   REMARKS
CHEROKEE       MOCLDY    71  64  79 CALM      30.02S
DENISON        CLOUDY    68  64  88 NE5       29.99F
ESTHERVILLE    MOCLDY    66  63  90 NE6       30.03R
LE MARS        PTCLDY    73  63  68 N6        30.03S
SHELDON        CLEAR     68  63  83 NE7       30.02F
SIOUX CITY     PTCLDY    76  63  64 NE6       30.01R
SPENCER        MOCLDY    68  62  81 N6        30.03R
STORM LAKE     PTCLDY    70  63  78 NE7       30.03S
$$

ABBREVIATIONS USED IN REMARKS
   TC - TEMPERATURE IN CELSIUS
  WCI - WIND CHILL INDEX
   HX - HEAT INDEX
  VSB - VISIBILITY





USA.gov is the U.S. government's official web portal to all federal, state and local government web resources and services.